Showing default

ERS 6, 608

Orbit data source: Space-Track

ERS 6, 608 is a payload satellite owned by USAF SSD (US) in LEO that was launched on Thu, 09 May 1963 UTC via an ATLAS AGENA B launch vehicle from the Air Force Western Test Range (AFWTR). Payload-class satellites include a variety of spacecraft equipped with specific instruments for various scientific and technological missions. These include communications satellites like Starlink; space stations such as the ISS; scientific satellites like the Hubble; Earth observation satellites from companies like Planet Labs, Umbra, and HawkEye 360; GPS; miniature CubeSats for education and research; and military/defense satellites.

Loading next visibility...
Identifier
608, 1963-014C
Orbit
LEO
Country
Flag of USUS
Related business
Manufacturer
TRW
Mission
Spacecraft
Bus & Motor
TRS, Unknown motor
Mass
1 kg wet, 1 kg dry
Launch date (UTC)
1963-05-09 (63 years ago)
Launch vehicle
ATLAS AGENA B
Launch site
Air Force Western Test Range (AFWTR)
Object type
Payload
Rocket body
Debris
Shape & HBR
Unknown
Radar Cross Section
Medium (>0.1 m² and <1 m²)

Expand to show TLE details & history
Last TLE update: 4 hours ago

TLE from 4 hours ago
0 ERS 6
1 00608U 63014C   26101.28892442 -.00000049  00000-0 -24445-1 0  9992
2 00608  87.3570 199.6749 0025461  72.3840 287.9793  8.65280845987716
Epoch: 2026-04-11T06:56Z
TLE epoch observation values (Epoch: 2026-04-11T06:56:03.069Z)
Latitude
0.00001°
Longitude
-103.84826°
Altitude
3,638.448 km
Speed
6.311 km/s
True Right ascension
13h 18m 41s
True Declination
0° 00' 00"
Sunlit
Object was in full shadow at epoch
Visualization orbit readout
Latitude
Unknown
Longitude
Unknown
Altitude
Unknown
Speed
Unknown
Apparent Right ascension
Unknown
Apparent Declination
Unknown
Sunlit
N/A
Visualization observer readout
Local Sidereal Time
17:01:57
Azimuth
Unknown
Elevation
Unknown
Doppler factor
Unknown
Orbital elements
Apogee altitude
3,667.415 km
Perigee altitude
3,616.391 km
Semi-major axis
10,020.04 km
Eccentricity
0.00255
Inclination
87.357°
RAAN
199.6749°
Arg. of periapsis
72.384°
True anomaly
287.70151°
Mean anomaly
287.9793°
Eccentric anomaly
287.84043°
Mean motion
2.16391 °/min
Orbital period
166.37 mins
BSTAR
-0.024445

Documentation

Showing up to 5 results
|